Time,TemperatureF,DewpointF,PressureIn,WindDirection,WindDirectionDegrees,WindSpeedMPH,WindSpeedGustMPH,Humidity,HourlyPrecipIn,Conditions,Clouds,dailyrainin,SoftwareType,DateUTC
2013-10-08 00:01:00,51.6,45.6,30.04,North,360,2.0,2.0,80,0.00,,,0.21,VWS V14.01,2013-10-08 04:01:00,
2013-10-08 00:02:00,51.7,45.1,30.04,NNE,24,0.0,1.0,78,0.00,,,0.00,VWS V14.01,2013-10-08 04:02:00,
2013-10-08 00:04:00,52.0,45.0,30.04,NE,36,2.0,2.0,77,0.00,,,0.00,VWS V14.01,2013-10-08 04:04:00,
2013-10-08 00:05:00,52.2,45.2,30.04,NE,36,3.0,3.0,77,0.00,,,0.00,VWS V14.01,2013-10-08 04:05:00,
2013-10-08 00:06:00,52.3,45.3,30.04,NE,44,1.0,1.0,77,0.00,,,0.00,VWS V14.01,2013-10-08 04:06:00,
2013-10-08 00:11:00,52.9,44.5,30.04,North,355,1.0,1.0,73,0.00,,,0.00,VWS V14.01,2013-10-08 04:11:00,
2013-10-08 00:16:00,53.3,44.2,30.03,North,11,2.0,2.0,71,0.00,,,0.00,VWS V14.01,2013-10-08 04:16:00,
2013-10-08 00:21:00,53.5,45.1,30.03,NNW,327,1.0,1.0,73,0.00,,,0.00,VWS V14.01,2013-10-08 04:21:00,
2013-10-08 00:26:00,53.5,45.4,30.03,NNE,19,3.0,3.0,74,0.00,,,0.00,VWS V14.01,2013-10-08 04:26:00,
2013-10-08 00:31:00,53.5,45.1,30.02,NE,43,2.0,2.0,73,0.00,,,0.00,VWS V14.01,2013-10-08 04:31:00,
2013-10-08 00:36:00,53.3,44.5,30.02,North,355,2.0,2.0,72,0.00,,,0.00,VWS V14.01,2013-10-08 04:36:00,
2013-10-08 00:41:00,53.2,44.8,30.02,NNW,345,2.0,2.0,73,0.00,,,0.00,VWS V14.01,2013-10-08 04:41:00,
2013-10-08 00:46:00,52.9,44.8,30.02,NNE,26,3.0,3.0,74,0.00,,,0.00,VWS V14.01,2013-10-08 04:46:00,
2013-10-08 00:51:00,52.8,44.4,30.02,North,355,1.0,1.0,73,0.00,,,0.00,VWS V14.01,2013-10-08 04:51:00,
2013-10-08 00:57:00,52.8,45.8,30.02,NNW,347,2.0,2.0,77,0.00,,,0.00,VWS V14.01,2013-10-08 04:57:00,
2013-10-08 01:02:00,52.5,45.2,30.02,NNW,347,1.0,1.0,76,0.00,,,0.00,VWS V14.01,2013-10-08 05:02:00,
2013-10-08 01:07:00,52.3,45.3,30.02,NNW,347,2.0,2.0,77,0.00,,,0.00,VWS V14.01,2013-10-08 05:07:00,
2013-10-08 01:12:00,52.2,45.2,30.02,North,355,2.0,2.0,77,0.00,,,0.00,VWS V14.01,2013-10-08 05:12:00,
2013-10-08 01:17:00,52.0,45.4,30.01,North,355,1.0,1.0,78,0.00,,,0.00,VWS V14.01,2013-10-08 05:17:00,
2013-10-08 01:22:00,51.9,45.3,30.01,NNE,17,2.0,2.0,78,0.00,,,0.00,VWS V14.01,2013-10-08 05:22:00,
2013-10-08 01:27:00,51.7,45.4,30.01,NNE,17,1.0,1.0,79,0.00,,,0.00,VWS V14.01,2013-10-08 05:27:00,
2013-10-08 01:32:00,51.6,45.6,30.01,NNE,27,0.0,1.0,80,0.00,,,0.00,VWS V14.01,2013-10-08 05:32:00,
2013-10-08 01:37:00,51.4,44.8,30.01,ESE,102,1.0,1.0,78,0.00,,,0.00,VWS V14.01,2013-10-08 05:37:00,
2013-10-08 01:42:00,51.3,45.7,30.01,NE,46,0.0,1.0,81,0.00,,,0.00,VWS V14.01,2013-10-08 05:42:00,
2013-10-08 01:47:00,51.1,45.8,30.01,NE,46,0.0,1.0,82,0.00,,,0.00,VWS V14.01,2013-10-08 05:47:00,
2013-10-08 01:52:00,50.5,44.9,30.01,NE,46,0.0,1.0,81,0.00,,,0.00,VWS V14.01,2013-10-08 05:52:00,
2013-10-08 01:57:00,50.2,44.9,30.01,NE,46,0.0,1.0,82,0.00,,,0.00,VWS V14.01,2013-10-08 05:57:00,
2013-10-08 02:02:00,49.9,44.6,30.01,NE,46,0.0,1.0,82,0.00,,,0.00,VWS V14.01,2013-10-08 06:02:00,
2013-10-08 02:07:00,49.5,44.6,30.01,NE,46,0.0,1.0,83,0.00,,,0.00,VWS V14.01,2013-10-08 06:07:00,
2013-10-08 02:12:00,49.2,44.6,30.01,NE,46,0.0,1.0,84,0.00,,,0.00,VWS V14.01,2013-10-08 06:12:00,
2013-10-08 02:17:00,48.9,44.6,30.01,NE,46,0.0,1.0,85,0.00,,,0.00,VWS V14.01,2013-10-08 06:17:00,
2013-10-08 02:23:00,48.8,44.5,30.01,NE,46,0.0,1.0,85,0.00,,,0.00,VWS V14.01,2013-10-08 06:23:00,
2013-10-08 02:28:00,48.6,44.6,30.01,NE,46,0.0,1.0,86,0.00,,,0.00,VWS V14.01,2013-10-08 06:28:00,
2013-10-08 02:33:00,48.5,44.5,30.02,NE,46,0.0,1.0,86,0.00,,,0.00,VWS V14.01,2013-10-08 06:33:00,
2013-10-08 02:38:00,48.3,44.6,30.02,NE,46,0.0,1.0,87,0.00,,,0.00,VWS V14.01,2013-10-08 06:38:00,
2013-10-08 02:43:00,48.2,44.5,30.02,NE,46,0.0,1.0,87,0.00,,,0.00,VWS V14.01,2013-10-08 06:43:00,
2013-10-08 02:48:00,48.0,44.3,30.03,NE,46,0.0,1.0,87,0.00,,,0.00,VWS V14.01,2013-10-08 06:48:00,
2013-10-08 02:53:00,48.0,44.6,30.03,NE,46,0.0,1.0,88,0.00,,,0.00,VWS V14.01,2013-10-08 06:53:00,
2013-10-08 02:58:00,47.9,44.5,30.03,NE,46,0.0,1.0,88,0.00,,,0.00,VWS V14.01,2013-10-08 06:58:00,
2013-10-08 03:03:00,47.7,44.3,30.03,NE,46,0.0,1.0,88,0.00,,,0.00,VWS V14.01,2013-10-08 07:03:00,
2013-10-08 03:08:00,47.7,44.3,30.03,NE,46,0.0,1.0,88,0.00,,,0.00,VWS V14.01,2013-10-08 07:08:00,
2013-10-08 03:13:00,47.6,44.2,30.03,NE,46,0.0,1.0,88,0.00,,,0.00,VWS V14.01,2013-10-08 07:13:00,
2013-10-08 03:18:00,47.6,44.2,30.02,NE,46,0.0,1.0,88,0.00,,,0.00,VWS V14.01,2013-10-08 07:18:00,
2013-10-08 03:23:00,47.4,44.0,30.02,NE,46,0.0,1.0,88,0.00,,,0.00,VWS V14.01,2013-10-08 07:23:00,
2013-10-08 03:28:00,47.6,44.2,30.02,NE,46,0.0,1.0,88,0.00,,,0.00,VWS V14.01,2013-10-08 07:28:00,
2013-10-08 03:33:00,47.6,44.2,30.02,NE,46,0.0,1.0,88,0.00,,,0.00,VWS V14.01,2013-10-08 07:33:00,
2013-10-08 03:38:00,47.6,43.9,30.02,NE,46,0.0,1.0,87,0.00,,,0.00,VWS V14.01,2013-10-08 07:38:00,
2013-10-08 03:43:00,47.6,43.9,30.02,NE,46,0.0,1.0,87,0.00,,,0.00,VWS V14.01,2013-10-08 07:43:00,
2013-10-08 03:48:00,47.9,43.9,30.02,West,279,1.0,1.0,86,0.00,,,0.00,VWS V14.01,2013-10-08 07:48:00,
2013-10-08 03:53:00,48.2,43.9,30.02,WNW,296,2.0,2.0,85,0.00,,,0.00,VWS V14.01,2013-10-08 07:53:00,
2013-10-08 03:58:00,48.6,43.7,30.02,North,360,1.0,1.0,83,0.00,,,0.00,VWS V14.01,2013-10-08 07:58:00,
2013-10-08 04:04:00,49.1,44.5,30.01,North,360,1.0,1.0,84,0.00,,,0.00,VWS V14.01,2013-10-08 08:04:00,
2013-10-08 04:09:00,49.2,44.6,30.01,North,360,1.0,1.0,84,0.00,,,0.00,VWS V14.01,2013-10-08 08:09:00,
2013-10-08 04:14:00,49.4,44.5,30.01,North,360,1.0,1.0,83,0.00,,,0.00,VWS V14.01,2013-10-08 08:14:00,
2013-10-08 04:19:00,49.5,44.6,30.02,North,360,0.0,1.0,83,0.00,,,0.00,VWS V14.01,2013-10-08 08:19:00,
2013-10-08 04:24:00,49.5,43.9,30.02,North,360,0.0,1.0,81,0.00,,,0.00,VWS V14.01,2013-10-08 08:24:00,
2013-10-08 04:29:00,49.4,43.8,30.02,North,360,0.0,1.0,81,0.00,,,0.00,VWS V14.01,2013-10-08 08:29:00,
2013-10-08 04:34:00,49.2,44.0,30.03,North,360,0.0,1.0,82,0.00,,,0.00,VWS V14.01,2013-10-08 08:34:00,
2013-10-08 04:39:00,49.2,44.3,30.03,NNW,344,0.0,1.0,83,0.00,,,0.00,VWS V14.01,2013-10-08 08:39:00,
2013-10-08 04:44:00,49.1,43.5,30.03,North,10,3.0,3.0,81,0.00,,,0.00,VWS V14.01,2013-10-08 08:44:00,
2013-10-08 04:49:00,49.1,43.8,30.03,NNE,12,1.0,1.0,82,0.00,,,0.00,VWS V14.01,2013-10-08 08:49:00,
2013-10-08 04:54:00,49.1,43.5,30.03,ENE,78,0.0,1.0,81,0.00,,,0.00,VWS V14.01,2013-10-08 08:54:00,
2013-10-08 04:59:00,49.2,43.3,30.03,ENE,69,0.0,1.0,80,0.00,,,0.00,VWS V14.01,2013-10-08 08:59:00,
2013-10-08 05:04:00,49.2,43.3,30.03,NE,46,0.0,1.0,80,0.00,,,0.00,VWS V14.01,2013-10-08 09:04:00,
2013-10-08 05:09:00,49.2,43.3,30.03,ESE,102,0.0,1.0,80,0.00,,,0.00,VWS V14.01,2013-10-08 09:09:00,
2013-10-08 05:14:00,49.1,43.2,30.03,ENE,73,0.0,1.0,80,0.00,,,0.00,VWS V14.01,2013-10-08 09:14:00,
2013-10-08 05:19:00,48.9,43.0,30.04,NW,314,2.0,2.0,80,0.00,,,0.00,VWS V14.01,2013-10-08 09:19:00,
2013-10-08 05:24:00,48.9,43.0,30.04,NE,53,0.0,1.0,80,0.00,,,0.00,VWS V14.01,2013-10-08 09:24:00,
2013-10-08 05:29:00,48.8,43.2,30.04,NE,47,0.0,1.0,81,0.00,,,0.00,VWS V14.01,2013-10-08 09:29:00,
2013-10-08 05:34:00,48.6,43.0,30.05,NE,47,0.0,1.0,81,0.00,,,0.00,VWS V14.01,2013-10-08 09:34:00,
2013-10-08 05:40:00,48.3,42.8,30.05,NE,47,0.0,1.0,81,0.00,,,0.00,VWS V14.01,2013-10-08 09:40:00,
2013-10-08 05:45:00,48.2,43.0,30.05,NE,47,0.0,1.0,82,0.00,,,0.00,VWS V14.01,2013-10-08 09:45:00,
2013-10-08 05:50:00,48.0,42.8,30.05,NE,47,0.0,1.0,82,0.00,,,0.00,VWS V14.01,2013-10-08 09:50:00,
2013-10-08 05:55:00,47.9,43.3,30.05,NE,47,0.0,1.0,84,0.00,,,0.00,VWS V14.01,2013-10-08 09:55:00,
2013-10-08 06:00:00,47.7,43.1,30.05,NE,47,0.0,1.0,84,0.00,,,0.00,VWS V14.01,2013-10-08 10:00:00,
2013-10-08 06:05:00,47.6,43.0,30.05,NE,47,0.0,1.0,84,0.00,,,0.00,VWS V14.01,2013-10-08 10:05:00,
2013-10-08 06:10:00,47.4,43.1,30.05,NE,47,0.0,1.0,85,0.00,,,0.00,VWS V14.01,2013-10-08 10:10:00,
2013-10-08 06:15:00,47.4,43.1,30.07,NE,47,0.0,1.0,85,0.00,,,0.00,VWS V14.01,2013-10-08 10:15:00,
2013-10-08 06:20:00,47.3,43.0,30.07,NE,47,0.0,1.0,85,0.00,,,0.00,VWS V14.01,2013-10-08 10:20:00,
2013-10-08 06:25:00,47.1,43.1,30.07,NE,47,0.0,1.0,86,0.00,,,0.00,VWS V14.01,2013-10-08 10:25:00,
2013-10-08 06:30:00,47.0,43.0,30.08,NE,47,0.0,1.0,86,0.00,,,0.00,VWS V14.01,2013-10-08 10:30:00,
2013-10-08 06:35:00,47.0,42.7,30.08,NE,51,0.0,1.0,85,0.00,,,0.00,VWS V14.01,2013-10-08 10:35:00,
2013-10-08 06:40:00,47.1,42.8,30.08,NW,322,0.0,1.0,85,0.00,,,0.00,VWS V14.01,2013-10-08 10:40:00,
2013-10-08 06:45:00,47.3,42.7,30.08,NW,323,0.0,1.0,84,0.00,,,0.00,VWS V14.01,2013-10-08 10:45:00,
2013-10-08 06:50:00,47.3,42.4,30.08,ENE,65,0.0,1.0,83,0.00,,,0.00,VWS V14.01,2013-10-08 10:50:00,
2013-10-08 06:55:00,47.4,42.5,30.08,ENE,65,0.0,1.0,83,0.00,,,0.00,VWS V14.01,2013-10-08 10:55:00,
2013-10-08 07:00:00,47.4,42.5,30.08,NE,53,0.0,1.0,83,0.00,,,0.00,VWS V14.01,2013-10-08 11:00:00,
2013-10-08 07:05:00,47.4,42.2,30.08,NE,53,0.0,1.0,82,0.00,,,0.00,VWS V14.01,2013-10-08 11:05:00,
2013-10-08 07:10:00,47.4,42.2,30.08,NE,53,0.0,1.0,82,0.00,,,0.00,VWS V14.01,2013-10-08 11:10:00,
2013-10-08 07:15:00,47.4,42.2,30.09,ENE,78,0.0,1.0,82,0.00,,,0.00,VWS V14.01,2013-10-08 11:15:00,
2013-10-08 07:20:00,47.4,41.9,30.09,NE,56,0.0,1.0,81,0.00,,,0.00,VWS V14.01,2013-10-08 11:20:00,
2013-10-08 07:25:00,47.4,41.9,30.09,NNE,24,0.0,1.0,81,0.00,,,0.00,VWS V14.01,2013-10-08 11:25:00,
2013-10-08 07:31:00,47.4,41.9,30.10,NNW,342,2.0,2.0,81,0.00,,,0.00,VWS V14.01,2013-10-08 11:31:00,
2013-10-08 07:36:00,47.6,42.1,30.10,NNE,21,0.0,1.0,81,0.00,,,0.00,VWS V14.01,2013-10-08 11:36:00,
2013-10-08 07:41:00,47.6,42.1,30.10,NNE,21,1.0,1.0,81,0.00,,,0.00,VWS V14.01,2013-10-08 11:41:00,
2013-10-08 07:46:00,47.6,41.8,30.09,NW,323,0.0,1.0,80,0.00,,,0.00,VWS V14.01,2013-10-08 11:46:00,
2013-10-08 07:51:00,47.7,42.2,30.09,NW,323,0.0,1.0,81,0.00,,,0.00,VWS V14.01,2013-10-08 11:51:00,
2013-10-08 07:56:00,47.7,41.8,30.09,NW,323,0.0,1.0,80,0.00,,,0.00,VWS V14.01,2013-10-08 11:56:00,
2013-10-08 08:01:00,47.6,42.1,30.10,NE,34,0.0,1.0,81,0.00,,,0.00,VWS V14.01,2013-10-08 12:01:00,
2013-10-08 08:06:00,47.6,42.1,30.10,North,5,1.0,1.0,81,0.00,,,0.00,VWS V14.01,2013-10-08 12:06:00,
2013-10-08 08:11:00,47.4,41.9,30.10,NNE,32,0.0,1.0,81,0.00,,,0.00,VWS V14.01,2013-10-08 12:11:00,
2013-10-08 08:16:00,47.4,42.2,30.11,NNE,32,0.0,1.0,82,0.00,,,0.00,VWS V14.01,2013-10-08 12:16:00,
2013-10-08 08:21:00,47.4,41.9,30.11,ENE,64,2.0,2.0,81,0.00,,,0.00,VWS V14.01,2013-10-08 12:21:00,
2013-10-08 08:26:00,47.4,41.9,30.11,NE,46,0.0,1.0,81,0.00,,,0.00,VWS V14.01,2013-10-08 12:26:00,
2013-10-08 08:31:00,47.4,41.9,30.11,NNE,30,0.0,1.0,81,0.00,,,0.00,VWS V14.01,2013-10-08 12:31:00,
2013-10-08 08:36:00,47.6,42.1,30.11,NNW,348,0.0,1.0,81,0.00,,,0.00,VWS V14.01,2013-10-08 12:36:00,
2013-10-08 08:41:00,47.6,42.1,30.11,NNW,348,0.0,1.0,81,0.00,,,0.00,VWS V14.01,2013-10-08 12:41:00,
2013-10-08 08:46:00,47.7,41.8,30.11,NNW,338,0.0,1.0,80,0.00,,,0.00,VWS V14.01,2013-10-08 12:46:00,
2013-10-08 08:51:00,48.0,41.8,30.11,NNE,28,3.0,3.0,79,0.00,,,0.00,VWS V14.01,2013-10-08 12:51:00,
2013-10-08 08:57:00,48.3,41.4,30.11,NNE,13,2.0,2.0,77,0.00,,,0.00,VWS V14.01,2013-10-08 12:57:00,
2013-10-08 09:02:00,48.8,41.6,30.11,NW,306,0.0,1.0,76,0.00,,,0.00,VWS V14.01,2013-10-08 13:02:00,
2013-10-08 09:07:00,48.9,42.0,30.11,NNW,345,0.0,1.0,77,0.00,,,0.00,VWS V14.01,2013-10-08 13:07:00,
2013-10-08 09:12:00,49.2,41.6,30.11,NNW,343,0.0,1.0,75,0.00,,,0.00,VWS V14.01,2013-10-08 13:12:00,
2013-10-08 09:17:00,49.4,41.5,30.12,NW,320,1.0,1.0,74,0.00,,,0.00,VWS V14.01,2013-10-08 13:17:00,
2013-10-08 09:22:00,49.6,41.3,30.12,ENE,61,0.0,1.0,73,0.00,,,0.00,VWS V14.01,2013-10-08 13:22:00,
2013-10-08 09:27:00,49.9,41.6,30.12,NNE,29,3.0,3.0,73,0.00,,,0.00,VWS V14.01,2013-10-08 13:27:00,
2013-10-08 09:32:00,50.1,41.8,30.12,NE,42,0.0,1.0,73,0.00,,,0.00,VWS V14.01,2013-10-08 13:32:00,
2013-10-08 09:37:00,50.2,41.9,30.12,NNE,22,2.0,2.0,73,0.00,,,0.00,VWS V14.01,2013-10-08 13:37:00,
2013-10-08 09:42:00,50.4,42.1,30.12,North,5,0.0,1.0,73,0.00,,,0.00,VWS V14.01,2013-10-08 13:42:00,
2013-10-08 09:47:00,50.7,41.7,30.11,NE,35,1.0,1.0,71,0.00,,,0.00,VWS V14.01,2013-10-08 13:47:00,
2013-10-08 09:52:00,51.0,41.9,30.11,ENE,65,2.0,2.0,71,0.00,,,0.00,VWS V14.01,2013-10-08 13:52:00,
2013-10-08 09:57:00,51.3,41.9,30.11,NNE,25,5.0,5.0,70,0.00,,,0.00,VWS V14.01,2013-10-08 13:57:00,
2013-10-08 10:03:00,51.6,42.2,30.12,ENE,78,1.0,1.0,70,0.00,,,0.00,VWS V14.01,2013-10-08 14:03:00,
2013-10-08 10:08:00,51.9,42.1,30.12,NNW,344,0.0,1.0,69,0.00,,,0.00,VWS V14.01,2013-10-08 14:08:00,
2013-10-08 10:13:00,52.2,42.7,30.12,NNW,341,0.0,1.0,70,0.00,,,0.00,VWS V14.01,2013-10-08 14:13:00,
2013-10-08 10:18:00,52.3,42.8,30.11,NNW,341,0.0,1.0,70,0.00,,,0.00,VWS V14.01,2013-10-08 14:18:00,
2013-10-08 10:23:00,52.6,42.3,30.11,West,275,0.0,1.0,68,0.00,,,0.00,VWS V14.01,2013-10-08 14:23:00,
2013-10-08 10:28:00,52.8,42.9,30.11,NNW,340,2.0,2.0,69,0.00,,,0.00,VWS V14.01,2013-10-08 14:28:00,
2013-10-08 10:33:00,53.2,42.5,30.11,NW,305,2.0,2.0,67,0.00,,,0.00,VWS V14.01,2013-10-08 14:33:00,
2013-10-08 10:38:00,53.5,42.8,30.11,NE,42,0.0,1.0,67,0.00,,,0.00,VWS V14.01,2013-10-08 14:38:00,
2013-10-08 10:43:00,53.9,42.8,30.11,North,360,0.0,1.0,66,0.00,,,0.00,VWS V14.01,2013-10-08 14:43:00,
2013-10-08 10:48:00,54.2,43.1,30.10,NW,321,0.0,1.0,66,0.00,,,0.00,VWS V14.01,2013-10-08 14:48:00,
2013-10-08 10:53:00,54.5,43.8,30.10,North,355,2.0,2.0,67,0.00,,,0.00,VWS V14.01,2013-10-08 14:53:00,
2013-10-08 10:58:00,55.0,43.5,30.10,West,266,2.0,2.0,65,0.00,,,0.00,VWS V14.01,2013-10-08 14:58:00,
2013-10-08 11:03:00,55.3,42.9,30.09,NE,51,5.0,5.0,63,0.00,,,0.00,VWS V14.01,2013-10-08 15:03:00,
2013-10-08 11:08:00,55.6,42.8,30.09,NE,47,0.0,1.0,62,0.00,,,0.00,VWS V14.01,2013-10-08 15:08:00,
2013-10-08 11:13:00,55.7,43.3,30.09,WNW,302,0.0,1.0,63,0.00,,,0.00,VWS V14.01,2013-10-08 15:13:00,
2013-10-08 11:18:00,55.9,43.1,30.10,NNE,30,0.0,1.0,62,0.00,,,0.00,VWS V14.01,2013-10-08 15:18:00,
2013-10-08 11:23:00,56.2,43.8,30.10,WNW,291,0.0,1.0,63,0.00,,,0.00,VWS V14.01,2013-10-08 15:23:00,
2013-10-08 11:28:00,56.5,42.8,30.10,WNW,292,1.0,1.0,60,0.00,,,0.00,VWS V14.01,2013-10-08 15:28:00,
2013-10-08 11:34:00,56.9,44.0,30.10,NNW,333,3.0,3.0,62,0.00,,,0.00,VWS V14.01,2013-10-08 15:34:00,
2013-10-08 11:39:00,57.2,43.0,30.10,NNW,342,0.0,1.0,59,0.00,,,0.00,VWS V14.01,2013-10-08 15:39:00,
2013-10-08 11:44:00,57.6,43.8,30.10,NNW,336,0.0,1.0,60,0.00,,,0.00,VWS V14.01,2013-10-08 15:44:00,
2013-10-08 11:49:00,58.1,43.4,30.10,NNE,32,4.0,4.0,58,0.00,,,0.00,VWS V14.01,2013-10-08 15:49:00,
2013-10-08 11:54:00,58.4,43.2,30.10,NE,40,2.0,2.0,57,0.00,,,0.00,VWS V14.01,2013-10-08 15:54:00,
2013-10-08 11:59:00,58.7,43.1,30.10,NNE,29,6.0,6.0,56,0.00,,,0.00,VWS V14.01,2013-10-08 15:59:00,
2013-10-08 12:04:00,59.0,43.8,30.10,WSW,255,0.0,1.0,57,0.00,,,0.00,VWS V14.01,2013-10-08 16:04:00,
2013-10-08 12:09:00,59.3,43.6,30.10,North,355,2.0,2.0,56,0.00,,,0.00,VWS V14.01,2013-10-08 16:09:00,
2013-10-08 12:14:00,59.8,44.5,30.10,WNW,294,0.0,1.0,57,0.00,,,0.00,VWS V14.01,2013-10-08 16:14:00,
2013-10-08 12:19:00,60.2,44.5,30.09,NE,45,3.0,3.0,56,0.00,,,0.00,VWS V14.01,2013-10-08 16:19:00,
2013-10-08 12:24:00,60.5,43.8,30.09,East,89,0.0,1.0,54,0.00,,,0.00,VWS V14.01,2013-10-08 16:24:00,
2013-10-08 12:29:00,60.9,43.2,30.09,NE,36,0.0,1.0,52,0.00,,,0.00,VWS V14.01,2013-10-08 16:29:00,
2013-10-08 12:34:00,61.5,44.2,30.09,NE,35,0.0,1.0,53,0.00,,,0.00,VWS V14.01,2013-10-08 16:34:00,
2013-10-08 12:39:00,62.4,44.0,30.09,WSW,256,4.0,4.0,51,0.00,,,0.00,VWS V14.01,2013-10-08 16:39:00,
2013-10-08 12:44:00,63.4,43.9,30.09,SW,225,0.0,1.0,49,0.00,,,0.00,VWS V14.01,2013-10-08 16:44:00,
2013-10-08 12:49:00,63.7,45.2,30.08,NNW,329,1.0,1.0,51,0.00,,,0.00,VWS V14.01,2013-10-08 16:49:00,
2013-10-08 12:54:00,64.3,43.7,30.08,NNE,20,0.0,1.0,47,0.00,,,0.00,VWS V14.01,2013-10-08 16:54:00,
2013-10-08 12:59:00,65.0,43.7,30.08,WSW,250,1.0,1.0,46,0.00,,,0.00,VWS V14.01,2013-10-08 16:59:00,
2013-10-08 13:04:00,65.6,45.4,30.08,WNW,293,3.0,3.0,48,0.00,,,0.00,VWS V14.01,2013-10-08 17:04:00,
2013-10-08 13:10:00,66.4,46.1,30.08,NW,316,0.0,1.0,48,0.00,,,0.00,VWS V14.01,2013-10-08 17:10:00,
2013-10-08 13:15:00,66.8,45.4,30.08,NNW,328,0.0,1.0,46,0.00,,,0.00,VWS V14.01,2013-10-08 17:15:00,
2013-10-08 13:20:00,66.9,44.9,30.08,NW,319,4.0,4.0,45,0.00,,,0.00,VWS V14.01,2013-10-08 17:20:00,
2013-10-08 13:25:00,67.3,45.2,30.08,WNW,303,1.0,1.0,45,0.00,,,0.00,VWS V14.01,2013-10-08 17:25:00,
2013-10-08 13:30:00,66.9,45.5,30.07,West,261,0.0,1.0,46,0.00,,,0.00,VWS V14.01,2013-10-08 17:30:00,
2013-10-08 13:35:00,67.8,46.3,30.07,NW,317,0.0,1.0,46,0.00,,,0.00,VWS V14.01,2013-10-08 17:35:00,
2013-10-08 13:40:00,68.1,46.6,30.07,NW,319,1.0,1.0,46,0.00,,,0.00,VWS V14.01,2013-10-08 17:40:00,
2013-10-08 13:45:00,68.4,45.7,30.06,NE,40,0.0,1.0,44,0.00,,,0.00,VWS V14.01,2013-10-08 17:45:00,
2013-10-08 13:50:00,68.8,44.8,30.06,NNW,332,0.0,1.0,42,0.00,,,0.00,VWS V14.01,2013-10-08 17:50:00,
2013-10-08 13:55:00,69.1,45.7,30.06,NE,38,0.0,1.0,43,0.00,,,0.00,VWS V14.01,2013-10-08 17:55:00,
2013-10-08 14:00:00,68.9,45.5,30.06,North,355,2.0,2.0,43,0.00,,,0.00,VWS V14.01,2013-10-08 18:00:00,
2013-10-08 14:05:00,69.4,45.3,30.06,North,355,0.0,1.0,42,0.00,,,0.00,VWS V14.01,2013-10-08 18:05:00,
2013-10-08 14:10:00,69.8,46.3,30.06,North,355,2.0,2.0,43,0.00,,,0.00,VWS V14.01,2013-10-08 18:10:00,
2013-10-08 14:15:00,69.9,45.8,30.05,East,89,4.0,4.0,42,0.00,,,0.00,VWS V14.01,2013-10-08 18:15:00,
2013-10-08 14:21:00,69.8,45.7,30.05,NNW,347,4.0,4.0,42,0.00,,,0.00,VWS V14.01,2013-10-08 18:21:00,
2013-10-08 14:26:00,69.4,44.7,30.05,North,355,2.0,2.0,41,0.00,,,0.00,VWS V14.01,2013-10-08 18:26:00,
2013-10-08 14:31:00,69.6,46.1,30.04,North,360,3.0,3.0,43,0.00,,,0.00,VWS V14.01,2013-10-08 18:31:00,
2013-10-08 14:36:00,69.9,45.2,30.04,NNE,29,4.0,4.0,41,0.00,,,0.00,VWS V14.01,2013-10-08 18:36:00,
2013-10-08 14:41:00,69.9,45.8,30.04,North,5,1.0,1.0,42,0.00,,,0.00,VWS V14.01,2013-10-08 18:41:00,
2013-10-08 14:46:00,70.1,44.0,30.04,NNW,347,2.0,2.0,39,0.00,,,0.00,VWS V14.01,2013-10-08 18:46:00,
2013-10-08 14:51:00,70.3,44.2,30.04,North,355,1.0,1.0,39,0.00,,,0.00,VWS V14.01,2013-10-08 18:51:00,
2013-10-08 14:56:00,70.1,45.3,30.04,NE,43,3.0,3.0,41,0.00,,,0.00,VWS V14.01,2013-10-08 18:56:00,
2013-10-08 15:01:00,70.4,46.9,30.04,West,265,0.0,1.0,43,0.00,,,0.00,VWS V14.01,2013-10-08 19:01:00,
2013-10-08 15:06:00,70.9,44.0,30.04,SSW,207,0.0,1.0,38,0.00,,,0.00,VWS V14.01,2013-10-08 19:06:00,
2013-10-08 15:11:00,71.5,45.9,30.04,WNW,288,0.0,1.0,40,0.00,,,0.00,VWS V14.01,2013-10-08 19:11:00,
2013-10-08 15:16:00,71.5,43.9,30.03,North,355,2.0,2.0,37,0.00,,,0.00,VWS V14.01,2013-10-08 19:16:00,
2013-10-08 15:21:00,71.5,45.9,30.03,North,355,0.0,1.0,40,0.00,,,0.00,VWS V14.01,2013-10-08 19:21:00,
2013-10-08 15:26:00,71.6,45.4,30.03,NNW,336,1.0,1.0,39,0.00,,,0.00,VWS V14.01,2013-10-08 19:26:00,
2013-10-08 15:31:00,71.1,45.6,30.03,NW,315,0.0,1.0,40,0.00,,,0.00,VWS V14.01,2013-10-08 19:31:00,
2013-10-08 15:36:00,71.1,44.9,30.03,NW,315,0.0,1.0,39,0.00,,,0.00,VWS V14.01,2013-10-08 19:36:00,
2013-10-08 15:42:00,71.5,47.2,30.03,WNW,292,0.0,1.0,42,0.00,,,0.00,VWS V14.01,2013-10-08 19:42:00,
2013-10-08 15:47:00,71.6,45.4,30.03,ENE,61,1.0,1.0,39,0.00,,,0.00,VWS V14.01,2013-10-08 19:47:00,
2013-10-08 15:52:00,71.3,44.4,30.03,North,355,2.0,2.0,38,0.00,,,0.00,VWS V14.01,2013-10-08 19:52:00,
2013-10-08 15:57:00,70.9,45.4,30.03,North,355,0.0,1.0,40,0.00,,,0.00,VWS V14.01,2013-10-08 19:57:00,
2013-10-08 16:02:00,70.6,44.5,30.04,NW,315,1.0,1.0,39,0.00,,,0.00,VWS V14.01,2013-10-08 20:02:00,
2013-10-08 16:07:00,70.6,45.1,30.04,NW,325,0.0,1.0,40,0.00,,,0.00,VWS V14.01,2013-10-08 20:07:00,
2013-10-08 16:12:00,71.3,45.8,30.04,NNW,331,0.0,1.0,40,0.00,,,0.00,VWS V14.01,2013-10-08 20:12:00,
2013-10-08 16:17:00,71.6,45.4,30.03,North,5,0.0,1.0,39,0.00,,,0.00,VWS V14.01,2013-10-08 20:17:00,
2013-10-08 16:22:00,71.5,45.3,30.03,WNW,297,0.0,1.0,39,0.00,,,0.00,VWS V14.01,2013-10-08 20:22:00,
2013-10-08 16:27:00,71.1,45.6,30.03,ENE,65,0.0,1.0,40,0.00,,,0.00,VWS V14.01,2013-10-08 20:27:00,
2013-10-08 16:32:00,71.3,47.0,30.03,WNW,301,1.0,1.0,42,0.00,,,0.00,VWS V14.01,2013-10-08 20:32:00,
2013-10-08 16:37:00,71.3,45.1,30.03,NNE,24,1.0,1.0,39,0.00,,,0.00,VWS V14.01,2013-10-08 20:37:00,
2013-10-08 16:42:00,70.9,46.0,30.03,NNW,337,0.0,1.0,41,0.00,,,0.00,VWS V14.01,2013-10-08 20:42:00,
2013-10-08 16:47:00,71.1,45.6,30.03,North,355,0.0,1.0,40,0.00,,,0.00,VWS V14.01,2013-10-08 20:47:00,
2013-10-08 16:52:00,71.3,43.7,30.03,NNE,18,0.0,1.0,37,0.00,,,0.00,VWS V14.01,2013-10-08 20:52:00,
2013-10-08 16:58:00,71.1,44.2,30.03,North,360,0.0,1.0,38,0.00,,,0.00,VWS V14.01,2013-10-08 20:58:00,
2013-10-08 17:03:00,71.1,45.6,30.04,NNW,337,0.0,1.0,40,0.00,,,0.00,VWS V14.01,2013-10-08 21:03:00,
2013-10-08 17:08:00,70.9,46.0,30.04,NNW,337,1.0,1.0,41,0.00,,,0.00,VWS V14.01,2013-10-08 21:08:00,
2013-10-08 17:13:00,70.6,44.5,30.04,NNE,14,0.0,1.0,39,0.00,,,0.00,VWS V14.01,2013-10-08 21:13:00,
2013-10-08 17:18:00,70.4,46.2,30.05,NNE,14,0.0,1.0,42,0.00,,,0.00,VWS V14.01,2013-10-08 21:18:00,
2013-10-08 17:23:00,70.1,46.6,30.05,NNE,14,0.0,1.0,43,0.00,,,0.00,VWS V14.01,2013-10-08 21:23:00,
2013-10-08 17:28:00,69.8,45.1,30.05,NNE,14,0.0,1.0,41,0.00,,,0.00,VWS V14.01,2013-10-08 21:28:00,
2013-10-08 17:33:00,69.3,46.5,30.05,NNE,14,0.0,1.0,44,0.00,,,0.00,VWS V14.01,2013-10-08 21:33:00,
2013-10-08 17:38:00,68.9,46.1,30.05,NNE,14,0.0,1.0,44,0.00,,,0.00,VWS V14.01,2013-10-08 21:38:00,
2013-10-08 17:43:00,68.6,47.6,30.05,NNW,342,0.0,1.0,47,0.00,,,0.00,VWS V14.01,2013-10-08 21:43:00,
2013-10-08 17:49:00,68.1,47.7,30.05,NNW,342,0.0,1.0,48,0.00,,,0.00,VWS V14.01,2013-10-08 21:49:00,
2013-10-08 17:54:00,67.4,48.7,30.05,NNW,342,0.0,1.0,51,0.00,,,0.00,VWS V14.01,2013-10-08 21:54:00,
2013-10-08 17:59:00,66.9,49.2,30.05,NNW,342,0.0,1.0,53,0.00,,,0.00,VWS V14.01,2013-10-08 21:59:00,
2013-10-08 18:04:00,66.4,49.3,30.06,NNW,342,0.0,1.0,54,0.00,,,0.00,VWS V14.01,2013-10-08 22:04:00,
2013-10-08 18:09:00,66.0,49.4,30.06,NNW,342,0.0,1.0,55,0.00,,,0.00,VWS V14.01,2013-10-08 22:09:00,
2013-10-08 18:14:00,65.5,50.3,30.06,NNW,342,0.0,1.0,58,0.00,,,0.00,VWS V14.01,2013-10-08 22:14:00,
2013-10-08 18:19:00,65.2,50.5,30.06,NNW,342,0.0,1.0,59,0.00,,,0.00,VWS V14.01,2013-10-08 22:19:00,
2013-10-08 18:24:00,64.7,50.1,30.06,NNW,342,0.0,1.0,59,0.00,,,0.00,VWS V14.01,2013-10-08 22:24:00,
2013-10-08 18:29:00,64.0,50.3,30.06,NNW,342,0.0,1.0,61,0.00,,,0.00,VWS V14.01,2013-10-08 22:29:00,
2013-10-08 18:34:00,63.5,50.7,30.07,NNW,342,0.0,1.0,63,0.00,,,0.00,VWS V14.01,2013-10-08 22:34:00,
2013-10-08 18:39:00,62.9,51.0,30.07,NNW,342,0.0,1.0,65,0.00,,,0.00,VWS V14.01,2013-10-08 22:39:00,
2013-10-08 18:44:00,62.3,50.4,30.07,NNW,342,0.0,1.0,65,0.00,,,0.00,VWS V14.01,2013-10-08 22:44:00,
2013-10-08 18:49:00,61.8,50.7,30.07,NNW,342,0.0,1.0,67,0.00,,,0.00,VWS V14.01,2013-10-08 22:49:00,
2013-10-08 18:54:00,61.3,51.1,30.07,NNW,342,0.0,1.0,69,0.00,,,0.00,VWS V14.01,2013-10-08 22:54:00,
2013-10-08 19:00:00,60.9,51.1,30.07,NNW,342,0.0,1.0,70,0.00,,,0.00,VWS V14.01,2013-10-08 23:00:00,
2013-10-08 19:05:00,60.4,51.0,30.07,NNW,342,0.0,1.0,71,0.00,,,0.00,VWS V14.01,2013-10-08 23:05:00,
2013-10-08 19:10:00,59.9,50.9,30.07,NNW,342,0.0,1.0,72,0.00,,,0.00,VWS V14.01,2013-10-08 23:10:00,
2013-10-08 19:15:00,59.5,50.5,30.07,NNW,342,0.0,1.0,72,0.00,,,0.00,VWS V14.01,2013-10-08 23:15:00,
2013-10-08 19:20:00,59.0,50.4,30.08,NNW,342,0.0,1.0,73,0.00,,,0.00,VWS V14.01,2013-10-08 23:20:00,
2013-10-08 19:25:00,58.7,50.1,30.08,NNW,342,0.0,1.0,73,0.00,,,0.00,VWS V14.01,2013-10-08 23:25:00,
2013-10-08 19:30:00,58.3,50.1,30.08,NNW,342,0.0,1.0,74,0.00,,,0.00,VWS V14.01,2013-10-08 23:30:00,
2013-10-08 19:35:00,58.0,49.8,30.08,NNW,342,0.0,1.0,74,0.00,,,0.00,VWS V14.01,2013-10-08 23:35:00,
2013-10-08 19:40:00,57.6,50.5,30.08,NNW,342,0.0,1.0,77,0.00,,,0.00,VWS V14.01,2013-10-08 23:40:00,
2013-10-08 19:45:00,57.3,50.2,30.08,NNW,342,0.0,1.0,77,0.00,,,0.00,VWS V14.01,2013-10-08 23:45:00,
2013-10-08 19:50:00,57.0,49.9,30.08,NNW,342,0.0,1.0,77,0.00,,,0.00,VWS V14.01,2013-10-08 23:50:00,
2013-10-08 19:55:00,56.6,49.8,30.08,NNW,342,0.0,1.0,78,0.00,,,0.00,VWS V14.01,2013-10-08 23:55:00,
2013-10-08 20:00:00,56.3,49.9,30.09,NNW,342,0.0,1.0,79,0.00,,,0.00,VWS V14.01,2013-10-09 00:00:00,
2013-10-08 20:05:00,56.0,49.9,30.09,NNW,342,0.0,1.0,80,0.00,,,0.00,VWS V14.01,2013-10-09 00:05:00,
2013-10-08 20:11:00,55.9,50.2,30.09,NNW,342,0.0,1.0,81,0.00,,,0.00,VWS V14.01,2013-10-09 00:11:00,
2013-10-08 20:16:00,55.7,50.0,30.09,NNW,342,0.0,1.0,81,0.00,,,0.00,VWS V14.01,2013-10-09 00:16:00,
2013-10-08 20:21:00,55.6,50.2,30.09,NNW,342,0.0,1.0,82,0.00,,,0.00,VWS V14.01,2013-10-09 00:21:00,
2013-10-08 20:26:00,55.4,50.0,30.09,NNW,342,0.0,1.0,82,0.00,,,0.00,VWS V14.01,2013-10-09 00:26:00,
2013-10-08 20:31:00,55.4,50.0,30.09,NNW,342,0.0,1.0,82,0.00,,,0.00,VWS V14.01,2013-10-09 00:31:00,
2013-10-08 20:36:00,55.6,50.2,30.09,NNW,342,0.0,1.0,82,0.00,,,0.00,VWS V14.01,2013-10-09 00:36:00,
2013-10-08 20:41:00,55.7,50.0,30.09,NNW,342,0.0,1.0,81,0.00,,,0.00,VWS V14.01,2013-10-09 00:41:00,
2013-10-08 20:46:00,55.9,50.2,30.09,NNW,342,0.0,1.0,81,0.00,,,0.00,VWS V14.01,2013-10-09 00:46:00,
2013-10-08 20:51:00,56.0,49.9,30.09,NNW,342,0.0,1.0,80,0.00,,,0.00,VWS V14.01,2013-10-09 00:51:00,
2013-10-08 20:56:00,56.0,49.2,30.09,NNW,342,0.0,1.0,78,0.00,,,0.00,VWS V14.01,2013-10-09 00:56:00,
2013-10-08 21:01:00,56.2,49.4,30.10,NNW,342,0.0,1.0,78,0.00,,,0.00,VWS V14.01,2013-10-09 01:01:00,
2013-10-08 21:06:00,56.3,48.8,30.10,NNW,342,0.0,1.0,76,0.00,,,0.00,VWS V14.01,2013-10-09 01:06:00,
2013-10-08 21:11:00,56.3,49.2,30.10,NNW,342,0.0,1.0,77,0.00,,,0.00,VWS V14.01,2013-10-09 01:11:00,
2013-10-08 21:16:00,56.5,48.7,30.10,NNW,342,0.0,1.0,75,0.00,,,0.00,VWS V14.01,2013-10-09 01:16:00,
2013-10-08 21:21:00,56.7,48.5,30.10,NNW,342,0.0,1.0,74,0.00,,,0.00,VWS V14.01,2013-10-09 01:21:00,
2013-10-08 21:26:00,57.2,48.6,30.10,NE,53,0.0,1.0,73,0.00,,,0.00,VWS V14.01,2013-10-09 01:26:00,
2013-10-08 21:31:00,57.3,48.7,30.11,NE,53,0.0,1.0,73,0.00,,,0.00,VWS V14.01,2013-10-09 01:31:00,
2013-10-08 21:36:00,57.5,48.6,30.11,NE,44,0.0,1.0,72,0.00,,,0.00,VWS V14.01,2013-10-09 01:36:00,
2013-10-08 21:42:00,57.5,48.6,30.11,NE,44,0.0,1.0,72,0.00,,,0.00,VWS V14.01,2013-10-09 01:42:00,
2013-10-08 21:47:00,57.5,48.6,30.11,NE,44,0.0,1.0,72,0.00,,,0.00,VWS V14.01,2013-10-09 01:47:00,
2013-10-08 21:52:00,57.3,48.4,30.11,WSW,240,2.0,2.0,72,0.00,,,0.00,VWS V14.01,2013-10-09 01:52:00,
2013-10-08 21:57:00,57.3,48.4,30.11,WSW,240,0.0,1.0,72,0.00,,,0.00,VWS V14.01,2013-10-09 01:57:00,
2013-10-08 22:02:00,57.3,48.4,30.12,WSW,240,0.0,1.0,72,0.00,,,0.00,VWS V14.01,2013-10-09 02:02:00,
2013-10-08 22:07:00,57.3,48.4,30.12,West,265,0.0,1.0,72,0.00,,,0.00,VWS V14.01,2013-10-09 02:07:00,
2013-10-08 22:12:00,57.3,48.0,30.12,West,265,0.0,1.0,71,0.00,,,0.00,VWS V14.01,2013-10-09 02:12:00,
2013-10-08 22:17:00,57.3,48.4,30.11,West,265,0.0,1.0,72,0.00,,,0.00,VWS V14.01,2013-10-09 02:17:00,
2013-10-08 22:22:00,57.2,48.3,30.11,West,265,0.0,1.0,72,0.00,,,0.00,VWS V14.01,2013-10-09 02:22:00,
2013-10-08 22:27:00,57.0,48.4,30.11,West,265,0.0,1.0,73,0.00,,,0.00,VWS V14.01,2013-10-09 02:27:00,
2013-10-08 22:32:00,56.7,48.2,30.11,West,265,0.0,1.0,73,0.00,,,0.00,VWS V14.01,2013-10-09 02:32:00,
2013-10-08 22:37:00,56.6,48.1,30.11,West,265,0.0,1.0,73,0.00,,,0.00,VWS V14.01,2013-10-09 02:37:00,
2013-10-08 22:42:00,56.2,48.8,30.11,West,265,0.0,1.0,76,0.00,,,0.00,VWS V14.01,2013-10-09 02:42:00,
2013-10-08 22:47:00,55.9,48.5,30.12,West,265,0.0,1.0,76,0.00,,,0.00,VWS V14.01,2013-10-09 02:47:00,
2013-10-08 22:53:00,55.7,49.0,30.12,West,265,0.0,1.0,78,0.00,,,0.00,VWS V14.01,2013-10-09 02:53:00,
2013-10-08 22:58:00,55.4,48.7,30.12,WNW,292,0.0,1.0,78,0.00,,,0.00,VWS V14.01,2013-10-09 02:58:00,
2013-10-08 23:03:00,55.0,49.0,30.12,WNW,292,0.0,1.0,80,0.00,,,0.00,VWS V14.01,2013-10-09 03:03:00,
2013-10-08 23:08:00,54.5,48.5,30.12,WNW,292,2.0,2.0,80,0.00,,,0.00,VWS V14.01,2013-10-09 03:08:00,
2013-10-08 23:13:00,54.4,48.7,30.12,WNW,292,0.0,1.0,81,0.00,,,0.00,VWS V14.01,2013-10-09 03:13:00,
2013-10-08 23:18:00,54.4,48.7,30.11,West,268,0.0,1.0,81,0.00,,,0.00,VWS V14.01,2013-10-09 03:18:00,
2013-10-08 23:23:00,54.4,49.0,30.11,West,268,0.0,1.0,82,0.00,,,0.00,VWS V14.01,2013-10-09 03:23:00,
2013-10-08 23:28:00,54.2,49.2,30.11,West,268,0.0,1.0,83,0.00,,,0.00,VWS V14.01,2013-10-09 03:28:00,
2013-10-08 23:33:00,54.2,48.5,30.11,West,269,0.0,1.0,81,0.00,,,0.00,VWS V14.01,2013-10-09 03:33:00,
2013-10-08 23:38:00,54.4,48.0,30.11,West,269,0.0,1.0,79,0.00,,,0.00,VWS V14.01,2013-10-09 03:38:00,
2013-10-08 23:43:00,54.5,48.1,30.11,West,275,3.0,3.0,79,0.00,,,0.00,VWS V14.01,2013-10-09 03:43:00,
2013-10-08 23:48:00,54.7,48.3,30.11,West,275,1.0,1.0,79,0.00,,,0.00,VWS V14.01,2013-10-09 03:48:00,
2013-10-08 23:53:00,54.8,48.8,30.11,West,272,0.0,1.0,80,0.00,,,0.00,VWS V14.01,2013-10-09 03:53:00,
2013-10-08 23:59:00,54.8,47.7,30.11,West,272,1.0,1.0,77,0.00,,,0.00,VWS V14.01,2013-10-09 03:59:00,